Regional Weather Roundup
Issued by NWS

Home | Current Version | Previous Version | Text Only | Print | Product List | Glossary Off
Versions: 1 2 3 4 5 6 7 8 9 10 11 12 13 14 15 16 17 18 19 20 21 22 23 24 25 26 27 28 29 30 31 32 33 34 35 36 37 38 39 40 41 42 43 44 45 46 47 48 49 50

000
ASUS43 KLMK 200002
RWRKY
KENTUCKY REGIONAL WEATHER ROUNDUP
NATIONAL WEATHER SERVICE LOUISVILLE KY
700 PM EST THU JAN 19 2017

NOTE "FAIR" INDICATES FEW OR NO CLOUDS BELOW 12,000 FEET
WITH NO SIGNIFICANT WEATHER AND/OR OBSTRUCTIONS TO VISIBILITY.

KYZ001>023-026-027-061>063-070>075-200100-
WESTERN AND SOUTH CENTRAL KENTUCKY

CITY           SKY/WX    TMP DP  RH WIND       PRES   REMARKS
PADUCAH        CLOUDY    59  56  89 S7        29.69F
HENDERSON      CLOUDY    52  48  87 E5        29.75S
OWENSBORO      RAIN      54  53  97 SE8       29.77S FOG
HOPKINSVILLE   DRIZZLE   55  55 100 SE8       29.75F
BOWLING GREEN  LGT RAIN  56  55  97 CALM      29.79F FOG
GLASGOW        NOT AVBL
$$

KYZ024-025-028>034-038-045-046-053-200100-
NORTH CENTRAL KENTUCKY

CITY           SKY/WX    TMP DP  RH WIND       PRES   REMARKS
LOUISVILLE/SDF HVY RAIN  50  48  93 E7        29.81F FOG
LOUISVILLE/LOU HVY RAIN  50  47  89 E5        29.82F FOG
FORT KNOX      LGT RAIN  50  50 100 E7        29.78F
$$

KYZ035>037-039>044-047>052-055>060-089>105-200100-
NORTHEAST KENTUCKY

CITY           SKY/WX    TMP DP  RH WIND       PRES   REMARKS
LEXINGTON      LGT RAIN  50  43  77 SE9       29.85F
COVINGTON      LGT RAIN  48  42  80 E8        29.85F
FRANKFORT      CLOUDY    49  43  80 SE7       29.83F
$$

KYZ054-064>069-076>088-106>120-200100-
SOUTHEAST KENTUCKY

CITY           SKY/WX    TMP DP  RH WIND       PRES   REMARKS
JACKSON        CLOUDY    51  41  68 E5        29.88F
LONDON         CLOUDY    50  47  89 CALM      29.87F
SOMERSET       DRIZZLE   50  50 100 E3        29.87F
MIDDLESBORO    CLOUDY    52  48  87 SW3       29.91F
MONTICELLO     LGT RAIN  54  52  93 VRB7      29.86F
$$





USA.gov is the U.S. government's official web portal to all federal, state and local government web resources and services.